Location: Kawakawa
(35.3830°S, 174.0670°E)
Time: 19:20:59
(UTC+13:00)

Explorer 7 - Pass Details

Date: 18 December 2019
Orbit: 485 x 679 km, 50.3° (Epoch: 28 January)

Event Time Altitude Azimuth Distance (km) Brightness Sun altitude
Rises 08:35:30 0° 226° (SW) 2,578 9.9 28.2°
Reaches altitude 10° 08:37:44 10° 220° (SW) 1,696 9.1 28.6°
Maximum altitude 08:41:27 49° 144° (SE) 657 8.2 29.4°
Drops below altitude 10° 08:45:14 10° 68° (ENE) 1,730 10.4 30.1°
Sets 08:47:31 0° 62° (ENE) 2,636 11.0 30.6°
